Weather History for Jamestown, ND

Change the Weather History Date:

Thursday, May 16, 2013

  Actual Average Record
Temperature  
Mean Temperature 56 °F 55 °F  
Max Temperature 67 °F 68 °F 94 °F (1987)
Min Temperature 45 °F 43 °F 21 °F (1983)
Degree Days  
Heating Degree Days 9 10  
Month to date heating degree days 238 205  
Since 1 July heating degree days 9544 8799  
Cooling Degree Days 0 1  
Month to date cooling degree days 6 5  
Year to date cooling degree days 6 7  
Growing Degree Days 6 (Base 50)    
Moisture  
Dew Point 45 °F    
Average Humidity 63    
Maximum Humidity 89    
Minimum Humidity 37    
Precipitation  
Precipitation 0.10 in 0.09 in 0.74 in (1992)
Month to date precipitation 0.17 1.27  
Year to date precipitation 1.36 4.16  
Sea Level Pressure  
Sea Level Pressure 29.90 in    
Wind  
Wind Speed 8 mph (NE)    
Max Wind Speed 22 mph    
Max Gust Speed 26 mph    
Visibility 10 miles    
Events Rain    
T = Trace of Precipitation, MM = Missing Value Source: NWS Daily Summary

Daily Weather History Graph

Daily Weather History Graph

Search for Another Location

Airport:

Trip Planner

Search our weather history database for the weather conditions in past years. The results will help you decide how hot, cold, wet, or windy it might be!

Date:

Astronomy

May. 16, 2013 Rise Set
Actual Time 5:58 AM CDT 9:04 PM CDT
Civil Twilight 5:21 AM CDT 9:41 PM CDT
Nautical Twilight 4:35 AM CDT 10:28 PM CDT
Astronomical Twilight 3:37 AM CDT 11:26 PM CDT
Moon 11:40 AM CDT (5/16) 1:20 AM CDT (5/16)
Length of Visible Light 16h 19m
Length of Day
15h 06m
Waxing Crescent, 36% of the Moon is Illuminated
May 16
Waxing Crescent
May 17
First Quarter
May 24
Full
May 31
Last Quarter
Jun 8
New

Hourly Weather History & Observations

Time (CDT) Temp. Dew Point Humidity Pressure Visibility Wind Dir Wind Speed Gust Speed Precip Events Conditions
12:56 AM 51.1 °F 37.0 °F 59% 29.87 in 10.0 mi NNW 3.5 mph - N/A   Clear
1:56 AM 48.9 °F 36.0 °F 61% 29.87 in 10.0 mi Calm Calm - N/A   Clear
2:56 AM 46.0 °F 35.1 °F 66% 29.87 in 10.0 mi Calm Calm - N/A   Clear
3:56 AM 46.0 °F 34.0 °F 63% 29.88 in 10.0 mi Calm Calm - N/A   Mostly Cloudy
4:56 AM 46.9 °F 39.0 °F 74% 29.88 in 10.0 mi Calm Calm - N/A   Scattered Clouds
5:56 AM 48.0 °F 37.0 °F 66% 29.88 in 10.0 mi Calm Calm - N/A   Scattered Clouds
6:56 AM 50.0 °F 42.1 °F 74% 29.89 in 10.0 mi Calm Calm - N/A   Overcast
7:56 AM 54.0 °F 43.0 °F 66% 29.89 in 10.0 mi SE 4.6 mph - N/A   Overcast
8:56 AM 61.0 °F 39.9 °F 46% 29.90 in 10.0 mi East 4.6 mph - N/A   Overcast
9:56 AM 64.0 °F 41.0 °F 43% 29.89 in 10.0 mi ESE 5.8 mph - N/A   Overcast
10:56 AM 66.9 °F 39.0 °F 36% 29.90 in 10.0 mi Calm Calm - N/A   Overcast
11:56 AM 66.0 °F 43.0 °F 43% 29.92 in 10.0 mi West 3.5 mph - N/A   Overcast
12:56 PM 64.0 °F 46.9 °F 54% 29.95 in 10.0 mi North 3.5 mph - 0.00 in Rain Light Rain
1:56 PM 62.1 °F 48.9 °F 62% 29.95 in 6.0 mi North 5.8 mph - 0.01 in Rain Light Rain
2:56 PM 61.0 °F 52.0 °F 72% 29.94 in 10.0 mi NNE 8.1 mph - 0.02 in Rain Light Rain
3:56 PM 59.0 °F 53.1 °F 81% 29.92 in 10.0 mi NNE 18.4 mph - 0.01 in Rain Light Rain
4:56 PM 55.9 °F 52.0 °F 87% 29.94 in 9.0 mi NNE 21.9 mph - 0.02 in Rain Light Rain
5:56 PM 55.0 °F 51.1 °F 86% 29.93 in 10.0 mi NE 17.3 mph - 0.02 in Rain Light Rain
6:56 PM 55.0 °F 51.1 °F 86% 29.91 in 10.0 mi NE 13.8 mph - 0.01 in Rain Light Rain
7:56 PM 55.0 °F 51.1 °F 86% 29.91 in 10.0 mi NE 10.4 mph - 0.00 in Rain Light Rain
8:56 PM 54.0 °F 50.0 °F 86% 29.88 in 10.0 mi East 16.1 mph - 0.01 in Rain Light Rain
9:56 PM 54.0 °F 50.0 °F 86% 29.90 in 10.0 mi ENE 13.8 mph - 0.00 in   Overcast
10:56 PM 54.0 °F 50.0 °F 86% 29.88 in 10.0 mi ENE 11.5 mph - N/A   Overcast
11:56 PM 53.1 °F 48.9 °F 86% 29.89 in 10.0 mi ENE 12.7 mph - N/A   Overcast